Regional Weather Roundup
Issued by NWS

Home | Current Version | Previous Version | Graphics & Text | Print | Product List | Glossary Off
Versions: 1 2 3 4 5 6 7 8 9 10 11 12 13 14 15 16 17 18 19 20 21 22 23 24 25 26 27 28 29 30 31 32 33 34 35 36 37 38 39 40 41 42 43 44 45 46 47 48 49 50

000
ASUS43 KLSX 201357
RWRMO

WEATHER SUMMARY FOR MISSOURI
NATIONAL WEATHER SERVICE SPRINGFIELD MO
800 AM CST MON FEB 20 2017

NOTE: "FAIR" INDICATES FEW OR NO CLOUDS BELOW 12,000 FEET WITH NO
       SIGNIFICANT WEATHER AND/OR OBSTRUCTIONS TO VISIBILITY.
       CURRENT SKY AND/OR WEATHER CONDITIONS ARE NOT AVAILABLE FOR
       CHILLICOTHE AND FARMINGTON.

MOZ001>031-035>038-043-044-053-054-201500-
...NORTHERN AND WESTERN MISSOURI...

CITY           SKY/WX    TMP DP  RH WIND       PRES   REMARKS
KANSAS CTY INT LGT RAIN  61  55  81 S15       29.83R
LEE`S SUMMIT   LGT RAIN  60  56  86 S13       29.85R
ST JOSEPH      CLOUDY    63  56  78 S14       29.81S
CHILLICOTHE      N/A     60  55  83 SE8       29.87F

$$
MOZ066>068-077>081-088>096-101>105-201500-
...SOUTHWEST MISSOURI...

CITY           SKY/WX    TMP DP  RH WIND       PRES   REMARKS
SPRINGFIELD    PTSUNNY   60  53  77 SE21      29.92R
JOPLIN         CLOUDY    61  61 100 S7        29.90R
BRANSON        PTSUNNY   59  54  82 SE13      29.97R

$$
MOZ032>034-039>042-045>050-055>058-069>072-201500-
...CENTRAL MISSOURI...

CITY           SKY/WX    TMP DP  RH WIND       PRES   REMARKS
COLUMBIA       NOT AVBL
JEFFERSON CITY CLOUDY    64  53  67 SE12      29.94S
ROLLA          SUNNY     61  52  72 SE17G25   29.97F
SEDALIA        MOSUNNY   64  54  69 S14G23    29.90R
WARRENSBURG    CLOUDY    63  54  72 SE13      29.86S

$$
MOZ051-052-059>065-201500-
...EAST CENTRAL MISSOURI...

CITY           SKY/WX    TMP DP  RH WIND       PRES   REMARKS
ST LOUIS INTL  PTSUNNY   56  51  84 SE10      30.06R HAZE

$$
MOZ072>076-082>087-097>100-106>115-201500-
...SOUTH CENTRAL AND SOUTHEAST MISSOURI...

CITY           SKY/WX    TMP DP  RH WIND       PRES   REMARKS
CAPE GIRARDEAU PTSUNNY   54  48  80 CALM      30.10R
POPLAR BLUFF   CLOUDY    52  51  97 E5        30.08R
WEST PLAINS    CLOUDY    59  52  77 SE9       30.03S

$$



USA.gov is the U.S. government's official web portal to all federal, state and local government web resources and services.